Regional Weather Roundup
Issued by NWS New Orleans/Baton Rouge, LA

Home | Current Version | Previous Version | Text Only | Print | Product List | Glossary Off
Versions: 1 2 3 4 5 6 7 8 9 10 11 12 13 14 15 16 17 18 19 20 21 22 23 24 25 26 27 28 29 30 31 32 33 34 35 36 37 38 39 40 41 42 43 44 45 46 47 48 49 50

367
ASUS44 KLIX 201701
RWRLIX
NEW ORLEANS REGIONAL WEATHER ROUNDUP
NATIONAL WEATHER SERVICE NEW ORLEANS LA
1200 PM CDT MON OCT 20 2014

NOTE: "FAIR" INDICATES FEW OR NO CLOUDS BELOW 12,000 FEET WITH NO
      SIGNIFICANT WEATHER AND/OR OBSTRUCTIONS TO VISIBILITY.
      SKY/WX - SKY CONDITION AND SIGNIFICANT WEATHER.
      TMP - AIR TEMPERATURE.     DP    - DEWPOINT TEMPERATURE.
      RH  - RELATIVE HUMIDITY.   PRES  - PRESSURE.
      HI  - HEAT INDEX.          WCI   - WIND CHILL INDEX.

*  THESE STATIONS ARE NOT NWS OR FAA STATIONS AND ARE NOT UNDER
   NWS QUALITY CONTROL.

LAZ038-040-048-061>063-065>067-069-201800-
SOUTHEAST LOUISIANA

CITY           SKY/WX    TMP DP  RH WIND       PRES   REMARKS
N.O. AUDUBON     N/A     79  60  53 MISG        N/A
N.O. INTL ARPT MOSUNNY   76  54  46 VRB6      30.06F
N.O. LAKEFRONT SUNNY     74  55  51 NE9       30.07F
N.O. DOWNTOWN*   N/A     75  55  50 E5        30.06F
SLIDELL        SUNNY     76  53  44 N6        30.06F
BATON ROUGE      N/A     75  52  44 N3        30.07F
BOOTHVILLE     MOSUNNY   79  63  57 NE6       30.05S
BELLE CHASSE   PTSUNNY   77  60  55 E7        30.05F
BOGALUSA*        N/A     74  49  40 CALM      30.09F
NEW ROADS*       N/A     73  53  50 CALM      30.08F
GONZALES*        N/A     75  57  53 CALM      30.06F
HAMMOND*       NOT AVBL
HOUMA*         MOSUNNY   79  63  57 N5        30.05F
PORT FOURCHON* SUNNY     79  61  53 E8        30.07F

$$

MSZ070-080>082-201800-
SOUTHERN MISSISSIPPI

CITY           SKY/WX    TMP DP  RH WIND       PRES   REMARKS
MCCOMB         MOSUNNY   73  48  41 N7        30.08F
GULFPORT       SUNNY     75  50  41 NW3       30.06F
BILOXI         NOT AVBL
PASCAGOULA     SUNNY     77  53  43 CALM      30.06F
STENNIS ARPT*  SUNNY     75  46  35 VRB5      30.07F

$$

COASTAL OBSERVATIONS
LAKE AND NEARSHORE STATIONS

STATION/POSITION TIME  TEMP    WIND        PRES    WAVE
                       AIR SEA DIR/SP/G            HT/PER
                 (UTC) (F)     (DEG/KT/KT) (MB)    (FT/S)
PASCAGOULA       1600   75      10/  4/  5 1017.4
WAVELAND YACHT   1600   71      20/  3/  4 1017.6
GRAND ISLE       1600   77 78   90/  7/  9 1018.0
SOUTHWEST PASS   1600   81 84              1017.6
NEW CANAL        1600   70 72   50/  9/ 10 1018.5
SHELL BEACH      1600   71 69   30/  7/ 12 1017.8

OFFSHORE STATIONS

STATION/POSITION TIME  TEMP    WIND        PRES    WAVE
                       AIR SEA DIR/SP/G            HT/PER
                 (UTC) (F)     (DEG/KT/KT) (MB)    (FT/S)
64 S DAUPHIN ISL 1633   76 80   90/  6/  8 1017.7    1/ 5

$$




USA.gov is the U.S. government's official web portal to all federal, state and local government web resources and services.